Time,TemperatureF,DewpointF,PressureIn,WindDirection,WindDirectionDegrees,WindSpeedMPH,WindSpeedGustMPH,Humidity,HourlyPrecipIn,Conditions,Clouds,dailyrainin,SoftwareType,DateUTC
2013-05-09 00:01:00,51.0,47.0,30.12,SE,140,1.0,-999.0,87,-99.99,,,-99.99,,2013-05-09 07:01:00,
2013-05-09 00:12:00,51.0,47.0,30.12,SE,140,1.0,-999.0,87,-99.99,,,-99.99,,2013-05-09 07:12:00,
2013-05-09 00:21:00,50.0,46.0,30.12,SE,138,0.0,-999.0,87,-99.99,,,-99.99,,2013-05-09 07:21:00,
2013-05-09 00:31:00,50.0,46.0,30.13,SE,138,0.0,-999.0,87,-99.99,,,-99.99,,2013-05-09 07:31:00,
2013-05-09 00:42:00,50.0,46.0,30.13,SE,138,0.0,-999.0,87,-99.99,,,-99.99,,2013-05-09 07:42:00,
2013-05-09 00:52:00,50.0,47.0,30.13,SE,142,1.0,-999.0,88,-99.99,,,-99.99,,2013-05-09 07:52:00,
2013-05-09 01:02:00,50.0,47.0,30.13,SE,126,1.0,-999.0,88,-99.99,,,-99.99,,2013-05-09 08:02:00,
2013-05-09 01:11:00,50.0,47.0,30.13,SE,126,1.0,-999.0,88,-99.99,,,-99.99,,2013-05-09 08:11:00,
2013-05-09 01:21:00,50.0,47.0,30.13,SE,138,1.0,-999.0,88,-99.99,,,-99.99,,2013-05-09 08:21:00,
2013-05-09 01:31:00,50.0,47.0,30.12,SE,138,0.0,-999.0,88,-99.99,,,-99.99,,2013-05-09 08:31:00,
2013-05-09 01:41:00,50.0,47.0,30.12,SE,138,0.0,-999.0,88,-99.99,,,-99.99,,2013-05-09 08:41:00,
2013-05-09 01:52:00,50.0,47.0,30.12,SE,136,1.0,-999.0,89,-99.99,,,-99.99,,2013-05-09 08:52:00,
2013-05-09 02:01:00,50.0,47.0,30.12,SE,128,0.0,-999.0,89,-99.99,,,-99.99,,2013-05-09 09:01:00,
2013-05-09 02:11:00,50.0,47.0,30.12,SE,128,0.0,-999.0,89,-99.99,,,-99.99,,2013-05-09 09:11:00,
2013-05-09 02:21:00,49.0,46.0,30.12,SE,128,0.0,-999.0,89,-99.99,,,-99.99,,2013-05-09 09:21:00,
2013-05-09 02:32:00,49.0,46.0,30.12,SE,128,0.0,-999.0,89,-99.99,,,-99.99,,2013-05-09 09:32:00,
2013-05-09 02:42:00,49.0,46.0,30.12,SE,128,0.0,-999.0,89,-99.99,,,-99.99,,2013-05-09 09:42:00,
2013-05-09 02:53:00,48.0,45.0,30.12,SE,128,0.0,-999.0,90,-99.99,,,-99.99,,2013-05-09 09:53:00,
2013-05-09 03:02:00,48.0,45.0,30.13,SE,128,0.0,-999.0,90,-99.99,,,-99.99,,2013-05-09 10:02:00,
2013-05-09 03:12:00,48.0,45.0,30.13,SE,128,0.0,-999.0,90,-99.99,,,-99.99,,2013-05-09 10:12:00,
2013-05-09 03:22:00,48.0,45.0,30.12,SE,128,0.0,-999.0,91,-99.99,,,-99.99,,2013-05-09 10:22:00,
2013-05-09 03:33:00,48.0,45.0,30.12,SE,128,0.0,-999.0,91,-99.99,,,-99.99,,2013-05-09 10:33:00,
2013-05-09 03:42:00,48.0,45.0,30.12,SE,128,0.0,-999.0,91,-99.99,,,-99.99,,2013-05-09 10:42:00,
2013-05-09 03:52:00,48.0,45.0,30.12,SE,128,0.0,-999.0,91,-99.99,,,-99.99,,2013-05-09 10:52:00,
2013-05-09 04:02:00,48.0,45.0,30.12,SE,128,0.0,-999.0,91,-99.99,,,-99.99,,2013-05-09 11:02:00,
2013-05-09 04:12:00,48.0,45.0,30.12,SE,128,0.0,-999.0,91,-99.99,,,-99.99,,2013-05-09 11:12:00,
2013-05-09 04:22:00,48.0,45.0,30.11,SE,128,0.0,-999.0,91,-99.99,,,-99.99,,2013-05-09 11:22:00,
2013-05-09 04:32:00,48.0,45.0,30.11,SE,128,0.0,-999.0,91,-99.99,,,-99.99,,2013-05-09 11:32:00,
2013-05-09 04:41:00,48.0,45.0,30.11,SE,128,0.0,-999.0,91,-99.99,,,-99.99,,2013-05-09 11:41:00,
2013-05-09 04:52:00,48.0,45.0,30.11,SE,128,0.0,-999.0,91,-99.99,,,-99.99,,2013-05-09 11:52:00,
2013-05-09 05:01:00,48.0,45.0,30.11,SE,128,0.0,-999.0,91,-99.99,,,-99.99,,2013-05-09 12:01:00,
2013-05-09 05:11:00,48.0,45.0,30.11,SE,128,0.0,-999.0,91,-99.99,,,-99.99,,2013-05-09 12:11:00,
2013-05-09 05:21:00,48.0,46.0,30.11,SE,128,0.0,-999.0,92,-99.99,,,-99.99,,2013-05-09 12:21:00,
2013-05-09 05:31:00,49.0,47.0,30.11,SE,128,0.0,-999.0,92,-99.99,,,-99.99,,2013-05-09 12:31:00,
2013-05-09 05:42:00,49.0,47.0,30.11,SE,128,0.0,-999.0,92,-99.99,,,-99.99,,2013-05-09 12:42:00,
2013-05-09 05:52:00,49.0,47.0,30.11,SE,128,0.0,-999.0,92,-99.99,,,-99.99,,2013-05-09 12:52:00,
2013-05-09 06:01:00,49.0,47.0,30.11,SE,128,0.0,-999.0,92,-99.99,,,-99.99,,2013-05-09 13:01:00,
2013-05-09 06:12:00,49.0,47.0,30.11,SE,128,0.0,-999.0,92,-99.99,,,-99.99,,2013-05-09 13:12:00,
2013-05-09 06:21:00,49.0,47.0,30.11,SE,128,0.0,-999.0,92,-99.99,,,-99.99,,2013-05-09 13:21:00,
2013-05-09 06:31:00,49.0,47.0,30.11,SE,128,0.0,-999.0,92,-99.99,,,-99.99,,2013-05-09 13:31:00,
2013-05-09 06:42:00,49.0,47.0,30.11,SE,128,0.0,-999.0,92,-99.99,,,-99.99,,2013-05-09 13:42:00,
2013-05-09 06:52:00,49.0,47.0,30.11,SE,128,0.0,-999.0,92,-99.99,,,-99.99,,2013-05-09 13:52:00,
2013-05-09 07:01:00,49.0,47.0,30.12,SE,128,0.0,-999.0,92,-99.99,,,-99.99,,2013-05-09 14:01:00,
2013-05-09 07:11:00,49.0,47.0,30.12,SE,128,0.0,-999.0,92,-99.99,,,-99.99,,2013-05-09 14:11:00,
2013-05-09 07:21:00,49.0,47.0,30.13,SE,128,0.0,-999.0,92,-99.99,,,-99.99,,2013-05-09 14:21:00,
2013-05-09 07:32:00,50.0,48.0,30.13,SE,128,0.0,-999.0,92,-99.99,,,-99.99,,2013-05-09 14:32:00,
2013-05-09 07:41:00,50.0,48.0,30.13,SE,128,0.0,-999.0,92,-99.99,,,-99.99,,2013-05-09 14:41:00,
2013-05-09 07:52:00,50.0,48.0,30.13,SE,128,0.0,-999.0,92,-99.99,,,-99.99,,2013-05-09 14:52:00,
2013-05-09 08:01:00,50.0,48.0,30.14,SE,144,0.0,-999.0,92,-99.99,,,-99.99,,2013-05-09 15:01:00,
2013-05-09 08:11:00,50.0,48.0,30.14,SE,144,0.0,-999.0,92,-99.99,,,-99.99,,2013-05-09 15:11:00,
2013-05-09 08:21:00,50.0,47.0,30.14,SE,144,0.0,-999.0,91,-99.99,,,-99.99,,2013-05-09 15:21:00,
2013-05-09 08:33:00,50.0,47.0,30.14,SE,141,0.0,-999.0,90,-99.99,,,-99.99,,2013-05-09 15:33:00,
2013-05-09 08:42:00,50.0,47.0,30.14,SE,141,0.0,-999.0,90,-99.99,,,-99.99,,2013-05-09 15:42:00,
2013-05-09 08:53:00,51.0,48.0,30.15,SE,140,0.0,-999.0,90,-99.99,,,-99.99,,2013-05-09 15:53:00,
2013-05-09 09:03:00,51.0,48.0,30.15,SE,145,1.0,-999.0,89,-99.99,,,-99.99,,2013-05-09 16:03:00,
2013-05-09 09:12:00,51.0,48.0,30.15,SE,145,1.0,-999.0,89,-99.99,,,-99.99,,2013-05-09 16:12:00,
2013-05-09 09:22:00,51.0,48.0,30.16,SE,143,1.0,-999.0,90,-99.99,,,-99.99,,2013-05-09 16:22:00,
2013-05-09 09:32:00,51.0,48.0,30.16,SE,139,0.0,-999.0,89,-99.99,,,-99.99,,2013-05-09 16:32:00,
2013-05-09 09:42:00,51.0,48.0,30.16,SE,139,0.0,-999.0,89,-99.99,,,-99.99,,2013-05-09 16:42:00,
2013-05-09 09:52:00,52.0,49.0,30.15,SE,132,0.0,-999.0,88,-99.99,,,-99.99,,2013-05-09 16:52:00,
2013-05-09 10:02:00,53.0,49.0,30.16,ESE,122,1.0,-999.0,87,-99.99,,,-99.99,,2013-05-09 17:02:00,
2013-05-09 10:12:00,53.0,49.0,30.16,ESE,122,1.0,-999.0,87,-99.99,,,-99.99,,2013-05-09 17:12:00,
2013-05-09 10:21:00,54.0,49.0,30.16,SW,217,1.0,-999.0,84,-99.99,,,-99.99,,2013-05-09 17:21:00,
2013-05-09 10:32:00,57.0,51.0,30.16,ESE,121,0.0,-999.0,81,-99.99,,,-99.99,,2013-05-09 17:32:00,
2013-05-09 10:41:00,57.0,51.0,30.16,ESE,121,0.0,-999.0,81,-99.99,,,-99.99,,2013-05-09 17:41:00,
2013-05-09 10:55:00,59.0,51.0,30.15,ESE,121,0.0,-999.0,76,-99.99,,,-99.99,,2013-05-09 17:55:00,
2013-05-09 11:01:00,60.0,52.0,30.15,WSW,251,1.0,-999.0,74,-99.99,,,-99.99,,2013-05-09 18:01:00,
2013-05-09 11:12:00,60.0,52.0,30.15,WSW,251,1.0,-999.0,74,-99.99,,,-99.99,,2013-05-09 18:12:00,
2013-05-09 11:21:00,62.0,52.0,30.15,SE,130,1.0,-999.0,71,-99.99,,,-99.99,,2013-05-09 18:21:00,
2013-05-09 11:31:00,64.0,54.0,30.15,SE,136,1.0,-999.0,69,-99.99,,,-99.99,,2013-05-09 18:31:00,
2013-05-09 11:41:00,64.0,54.0,30.15,SE,136,1.0,-999.0,69,-99.99,,,-99.99,,2013-05-09 18:41:00,
2013-05-09 11:52:00,65.0,54.0,30.15,SE,128,1.0,-999.0,68,-99.99,,,-99.99,,2013-05-09 18:52:00,
2013-05-09 12:01:00,65.0,54.0,30.15,East,87,2.0,-999.0,67,-99.99,,,-99.99,,2013-05-09 19:01:00,
2013-05-09 12:11:00,65.0,54.0,30.15,East,87,2.0,-999.0,67,-99.99,,,-99.99,,2013-05-09 19:11:00,
2013-05-09 12:21:00,66.0,54.0,30.14,SE,130,2.0,-999.0,66,-99.99,,,-99.99,,2013-05-09 19:21:00,
2013-05-09 12:31:00,65.0,53.0,30.14,SE,138,3.0,-999.0,66,-99.99,,,-99.99,,2013-05-09 19:31:00,
2013-05-09 12:41:00,65.0,53.0,30.14,SE,138,3.0,-999.0,66,-99.99,,,-99.99,,2013-05-09 19:41:00,
2013-05-09 12:52:00,65.0,53.0,30.14,SE,140,4.0,-999.0,66,-99.99,,,-99.99,,2013-05-09 19:52:00,
2013-05-09 13:01:00,65.0,53.0,30.14,SE,129,4.0,-999.0,66,-99.99,,,-99.99,,2013-05-09 20:01:00,
2013-05-09 13:11:00,65.0,53.0,30.14,SE,129,4.0,-999.0,66,-99.99,,,-99.99,,2013-05-09 20:11:00,
2013-05-09 13:21:00,66.0,54.0,30.14,SE,124,3.0,-999.0,66,-99.99,,,-99.99,,2013-05-09 20:21:00,
2013-05-09 13:32:00,67.0,55.0,30.13,ESE,121,3.0,-999.0,65,-99.99,,,-99.99,,2013-05-09 20:32:00,
2013-05-09 13:42:00,67.0,55.0,30.13,SE,129,3.0,-999.0,65,-99.99,,,-99.99,,2013-05-09 20:42:00,
2013-05-09 13:52:00,67.0,55.0,30.13,SE,129,3.0,-999.0,65,-99.99,,,-99.99,,2013-05-09 20:52:00,
2013-05-09 14:01:00,67.0,54.0,30.13,SE,146,2.0,-999.0,64,-99.99,,,-99.99,,2013-05-09 21:01:00,
2013-05-09 14:11:00,67.0,54.0,30.13,SE,146,2.0,-999.0,64,-99.99,,,-99.99,,2013-05-09 21:11:00,
2013-05-09 14:22:00,67.0,54.0,30.13,ESE,118,3.0,-999.0,63,-99.99,,,-99.99,,2013-05-09 21:22:00,
2013-05-09 14:32:00,68.0,55.0,30.13,ESE,103,3.0,-999.0,64,-99.99,,,-99.99,,2013-05-09 21:32:00,
2013-05-09 14:42:00,68.0,56.0,30.12,SE,132,3.0,-999.0,65,-99.99,,,-99.99,,2013-05-09 21:42:00,
2013-05-09 14:53:00,68.0,56.0,30.12,SE,132,3.0,-999.0,65,-99.99,,,-99.99,,2013-05-09 21:53:00,
2013-05-09 15:02:00,68.0,54.0,30.12,SE,128,3.0,-999.0,62,-99.99,,,-99.99,,2013-05-09 22:02:00,
2013-05-09 15:12:00,68.0,54.0,30.12,SE,128,3.0,-999.0,62,-99.99,,,-99.99,,2013-05-09 22:12:00,
2013-05-09 15:22:00,69.0,55.0,30.12,SE,140,3.0,-999.0,62,-99.99,,,-99.99,,2013-05-09 22:22:00,
2013-05-09 15:32:00,67.0,54.0,30.11,SE,142,3.0,-999.0,63,-99.99,,,-99.99,,2013-05-09 22:32:00,
2013-05-09 15:42:00,68.0,55.0,30.10,SE,146,4.0,-999.0,63,-99.99,,,-99.99,,2013-05-09 22:42:00,
2013-05-09 15:52:00,68.0,55.0,30.10,SE,146,4.0,-999.0,63,-99.99,,,-99.99,,2013-05-09 22:52:00,
2013-05-09 16:02:00,69.0,55.0,30.10,SE,124,3.0,-999.0,61,-99.99,,,-99.99,,2013-05-09 23:02:00,
2013-05-09 16:11:00,69.0,55.0,30.10,SE,124,3.0,-999.0,61,-99.99,,,-99.99,,2013-05-09 23:11:00,
2013-05-09 16:21:00,67.0,54.0,30.09,SE,138,4.0,-999.0,63,-99.99,,,-99.99,,2013-05-09 23:21:00,
2013-05-09 16:32:00,68.0,55.0,30.09,SE,135,3.0,-999.0,63,-99.99,,,-99.99,,2013-05-09 23:32:00,
2013-05-09 16:42:00,68.0,55.0,30.09,SE,135,3.0,-999.0,63,-99.99,,,-99.99,,2013-05-09 23:42:00,
2013-05-09 16:52:00,68.0,54.0,30.09,SE,136,2.0,-999.0,61,-99.99,,,-99.99,,2013-05-09 23:52:00,
2013-05-09 17:01:00,67.0,54.0,30.08,SSE,160,3.0,-999.0,62,-99.99,,,-99.99,,2013-05-10 00:01:00,
2013-05-09 17:11:00,67.0,54.0,30.08,SSE,160,3.0,-999.0,62,-99.99,,,-99.99,,2013-05-10 00:11:00,
2013-05-09 17:21:00,67.0,54.0,30.08,SE,137,2.0,-999.0,63,-99.99,,,-99.99,,2013-05-10 00:21:00,
2013-05-09 17:31:00,65.0,53.0,30.08,SE,128,4.0,-999.0,66,-99.99,,,-99.99,,2013-05-10 00:31:00,
2013-05-09 17:42:00,64.0,52.0,30.08,South,173,4.0,-999.0,66,-99.99,,,-99.99,,2013-05-10 00:42:00,
2013-05-09 17:52:00,64.0,52.0,30.08,South,173,4.0,-999.0,66,-99.99,,,-99.99,,2013-05-10 00:52:00,
2013-05-09 18:01:00,64.0,52.0,30.08,South,173,4.0,-999.0,66,-99.99,,,-99.99,,2013-05-10 01:01:00,
2013-05-09 18:11:00,64.0,52.0,30.08,South,173,4.0,-999.0,66,-99.99,,,-99.99,,2013-05-10 01:11:00,
2013-05-09 18:21:00,63.0,53.0,30.08,ESE,111,3.0,-999.0,69,-99.99,,,-99.99,,2013-05-10 01:21:00,
2013-05-09 18:31:00,62.0,52.0,30.07,SE,130,4.0,-999.0,70,-99.99,,,-99.99,,2013-05-10 01:31:00,
2013-05-09 18:42:00,62.0,52.0,30.07,SE,130,4.0,-999.0,70,-99.99,,,-99.99,,2013-05-10 01:42:00,
2013-05-09 18:52:00,62.0,52.0,30.07,SE,130,4.0,-999.0,70,-99.99,,,-99.99,,2013-05-10 01:52:00,
2013-05-09 19:01:00,61.0,52.0,30.07,SSE,152,3.0,-999.0,72,-99.99,,,-99.99,,2013-05-10 02:01:00,
2013-05-09 19:11:00,61.0,52.0,30.07,SSE,152,3.0,-999.0,72,-99.99,,,-99.99,,2013-05-10 02:11:00,
2013-05-09 19:21:00,61.0,52.0,30.07,SSE,152,3.0,-999.0,72,-99.99,,,-99.99,,2013-05-10 02:21:00,
2013-05-09 19:31:00,58.0,50.0,30.09,SE,126,3.0,-999.0,74,-99.99,,,-99.99,,2013-05-10 02:31:00,
2013-05-09 19:42:00,57.0,50.0,30.09,SE,130,4.0,-999.0,77,-99.99,,,-99.99,,2013-05-10 02:42:00,
2013-05-09 19:52:00,57.0,50.0,30.09,SE,130,4.0,-999.0,77,-99.99,,,-99.99,,2013-05-10 02:52:00,
2013-05-09 20:01:00,55.0,49.0,30.09,SE,130,3.0,-999.0,80,-99.99,,,-99.99,,2013-05-10 03:01:00,
2013-05-09 20:11:00,55.0,49.0,30.09,SE,130,3.0,-999.0,80,-99.99,,,-99.99,,2013-05-10 03:11:00,
2013-05-09 20:21:00,54.0,49.0,30.10,SE,132,3.0,-999.0,82,-99.99,,,-99.99,,2013-05-10 03:21:00,
2013-05-09 20:32:00,53.0,48.0,30.11,SE,132,3.0,-999.0,83,-99.99,,,-99.99,,2013-05-10 03:32:00,
2013-05-09 20:43:00,53.0,48.0,30.11,SE,132,3.0,-999.0,83,-99.99,,,-99.99,,2013-05-10 03:43:00,
2013-05-09 20:53:00,53.0,48.0,30.11,SE,139,3.0,-999.0,84,-99.99,,,-99.99,,2013-05-10 03:53:00,
2013-05-09 21:02:00,52.0,48.0,30.12,SE,135,4.0,-999.0,85,-99.99,,,-99.99,,2013-05-10 04:02:00,
2013-05-09 21:12:00,52.0,48.0,30.12,SE,135,4.0,-999.0,85,-99.99,,,-99.99,,2013-05-10 04:12:00,
2013-05-09 21:22:00,52.0,48.0,30.13,SE,139,2.0,-999.0,86,-99.99,,,-99.99,,2013-05-10 04:22:00,
2013-05-09 21:33:00,52.0,48.0,30.13,SSE,147,3.0,-999.0,86,-99.99,,,-99.99,,2013-05-10 04:33:00,
2013-05-09 21:42:00,51.0,47.0,30.14,SSE,149,1.0,-999.0,87,-99.99,,,-99.99,,2013-05-10 04:42:00,
2013-05-09 21:53:00,51.0,47.0,30.14,SSE,149,1.0,-999.0,87,-99.99,,,-99.99,,2013-05-10 04:53:00,
2013-05-09 22:02:00,51.0,47.0,30.14,SSE,161,2.0,-999.0,87,-99.99,,,-99.99,,2013-05-10 05:02:00,
2013-05-09 22:12:00,51.0,47.0,30.14,SSE,161,2.0,-999.0,87,-99.99,,,-99.99,,2013-05-10 05:12:00,
2013-05-09 22:21:00,51.0,48.0,30.14,SE,133,2.0,-999.0,88,-99.99,,,-99.99,,2013-05-10 05:21:00,
2013-05-09 22:32:00,51.0,48.0,30.15,SE,136,1.0,-999.0,88,-99.99,,,-99.99,,2013-05-10 05:32:00,
2013-05-09 22:42:00,51.0,48.0,30.15,SE,132,1.0,-999.0,88,-99.99,,,-99.99,,2013-05-10 05:42:00,
2013-05-09 22:52:00,51.0,48.0,30.15,SE,132,1.0,-999.0,88,-99.99,,,-99.99,,2013-05-10 05:52:00,
2013-05-09 23:01:00,51.0,48.0,30.15,SE,138,1.0,-999.0,88,-99.99,,,-99.99,,2013-05-10 06:01:00,
2013-05-09 23:12:00,51.0,48.0,30.15,SE,138,1.0,-999.0,88,-99.99,,,-99.99,,2013-05-10 06:12:00,
2013-05-09 23:21:00,51.0,48.0,30.16,SE,126,2.0,-999.0,89,-99.99,,,-99.99,,2013-05-10 06:21:00,
2013-05-09 23:32:00,50.0,47.0,30.16,SE,131,1.0,-999.0,89,-99.99,,,-99.99,,2013-05-10 06:32:00,
2013-05-09 23:41:00,50.0,47.0,30.16,SE,131,1.0,-999.0,89,-99.99,,,-99.99,,2013-05-10 06:41:00,
2013-05-09 23:52:00,50.0,47.0,30.16,SE,138,2.0,-999.0,89,-99.99,,,-99.99,,2013-05-10 06:52:00,